Theta_e
330 323 320 314 302 296 292 296 301 303 303 306 309 309 311 313 313 307 335 340 340 338 341 342 346 349 349 347 348 347 346 343 343 342 342 341 340 338 337 337 338 339 336 336 335 334 335 334 335
326 324 317 308 298 291 291 296 300 303 307 309 310 309 309 311 321 330 333 340 339 339 340 340 343 347 348 348 347 347 347 343 342 342 340 340 340 339 336 335 339 336 341 339 336 334 333 333 334
320 322 309 304 297 293 291 298 302 306 309 307 307 311 312 312 324 329 338 339 338 337 338 340 342 347 348 347 347 347 346 344 341 342 339 338 338 337 337 338 335 337 335 340 336 334 333 333 333
312 313 311 299 295 298 295 300 305 305 307 308 308 309 315 323 326 334 339 339 335 334 337 339 343 346 347 347 347 347 345 344 343 340 339 339 337 337 338 338 337 338 333 335 336 334 333 332 332
310 309 302 297 297 299 298 304 306 304 304 303 305 306 313 324 335 337 336 336 332 333 336 339 342 344 345 345 345 346 344 344 344 343 341 341 339 338 338 335 336 336 334 332 334 335 333 332 332
305 307 298 296 296 300 301 304 305 303 304 304 308 311 313 326 332 335 336 333 334 333 335 338 335 338 341 343 342 341 341 344 343 343 342 340 340 339 338 337 335 334 334 332 333 333 332 331 331
304 302 298 298 298 300 302 306 304 305 303 305 308 307 314 322 330 334 335 335 336 336 335 334 336 335 333 337 338 338 338 342 342 342 341 339 338 337 337 336 336 335 333 334 333 334 332 330 330
307 304 299 300 298 299 304 305 308 308 308 313 313 306 309 319 329 331 336 336 335 337 335 333 333 334 333 333 331 333 334 337 338 337 336 333 332 333 332 330 334 337 336 334 333 333 333 332 331
310 299 296 300 301 301 305 305 308 311 310 312 316 314 316 326 327 326 326 330 332 334 335 336 333 333 332 331 330 328 329 330 330 331 330 327 329 328 327 327 330 335 335 335 335 334 335 333 331
301 296 299 305 307 303 305 306 307 307 308 311 315 322 326 326 325 324 323 325 327 329 331 333 334 332 331 333 330 328 329 328 327 327 327 328 326 327 328 324 325 330 330 332 334 335 332 328 325
299 296 300 307 310 309 306 305 308 306 305 310 313 318 324 324 324 324 324 324 326 328 329 330 335 334 331 331 328 327 327 326 326 325 325 325 326 324 323 323 323 324 321 324 327 326 327 325 323
297 301 303 308 308 308 306 307 306 306 307 312 317 322 323 323 323 323 324 325 326 327 329 330 330 331 330 331 328 327 327 326 325 325 326 325 323 322 322 322 322 322 323 321 322 321 323 323 324
299 300 303 306 307 306 308 305 304 304 309 316 319 321 322 323 324 325 326 327 327 326 328 330 330 330 329 329 329 329 328 328 327 326 327 326 324 323 323 322 322 322 323 322 321 321 322 322 323
303 303 302 305 304 306 304 303 306 306 309 312 317 317 319 320 321 322 324 324 327 329 329 331 331 332 330 329 328 329 329 329 328 327 328 327 326 325 324 323 322 321 322 322 322 322 321 320 321
304 298 300 300 301 301 303 297 301 306 306 309 311 311 316 318 320 320 322 323 325 327 328 330 331 332 330 329 328 328 330 329 328 328 329 328 328 326 325 324 323 322 323 322 321 320 320 319 319
297 296 291 299 302 302 297 288 296 303 304 304 306 307 310 314 316 318 321 323 323 324 325 327 332 332 331 330 329 328 328 329 329 328 329 329 329 328 326 325 324 324 324 322 321 320 319 318 318
293 286 290 294 300 301 296 291 298 302 300 299 300 301 302 308 313 315 319 321 322 324 325 325 328 329 330 330 330 329 328 327 329 329 328 328 329 329 328 328 326 326 325 323 323 321 319 318 318
287 287 288 289 296 298 295 295 299 301 301 299 299 300 301 302 303 308 311 313 317 319 322 323 325 327 329 330 329 329 328 327 327 328 329 329 329 329 328 327 326 326 324 324 326 325 324 323 322
291 288 287 291 296 293 292 293 295 297 297 298 299 300 301 302 304 306 306 306 306 308 309 310 312 320 323 322 323 324 325 326 325 328 328 329 329 330 329 327 327 327 328 328 326 324 322 322 323
292 288 286 292 295 292 290 290 293 294 294 295 296 296 297 297 299 300 301 301 303 306 308 308 310 311 317 322 322 323 323 324 328 329 328 329 328 328 330 329 329 329 327 325 325 324 321 321 322
292 289 288 288 292 292 290 286 289 293 295 295 297 296 297 297 298 298 299 302 302 302 303 307 309 310 312 316 319 320 321 321 321 324 326 327 328 327 326 327 328 327 326 325 324 324 322 320 320
289 294 293 291 287 281 288 277 285 288 290 292 294 295 295 296 296 298 298 298 299 301 303 305 306 308 311 312 315 317 317 316 319 321 323 325 327 326 325 325 326 326 326 324 324 324 323 321 319
290 294 292 290 287 283 281 279 282 287 287 288 290 292 294 296 297 297 297 299 300 302 303 304 306 307 308 309 310 312 314 317 318 319 320 322 324 325 325 325 324 325 324 324 324 323 322 322 320
294 291 291 290 285 273 281 279 277 283 287 290 292 293 295 295 297 298 299 301 302 302 301 303 306 307 310 309 308 310 311 314 314 315 316 317 318 316 312 319 320 324 324 323 323 323 322 321 321
292 287 277 275 272 271 281 279 280 288 290 292 294 294 294 295 296 297 298 300 300 300 299 300 299 299 301 302 303 305 308 311 307 305 305 305 306 305 305 306 307 307 308 308 310 316 320 320 320
289 287 278 269 273 276 282 278 283 289 292 294 294 295 294 294 297 298 298 298 298 298 297 297 297 297 299 300 300 300 302 302 302 302 302 302 303 302 302 303 303 304 305 305 306 306 308 310 312
288 285 290 281 274 274 277 282 288 291 291 292 293 294 295 296 297 298 297 297 296 295 295 296 296 296 297 298 297 297 298 299 299 300 300 299 300 301 300 301 301 301 302 303 303 303 304 304 305
290 292 283 281 270 270 275 276 279 285 289 291 291 291 293 294 297 298 297 296 295 294 295 295 296 295 296 296 296 296 296 297 297 297 296 297 297 298 298 298 299 299 300 300 300 300 301 300 301
288 286 287 286 281 276 273 276 285 286 289 289 291 293 292 293 294 297 297 297 296 294 294 294 294 294 294 295 295 295 295 295 296 295 295 296 296 297 297 297 298 298 298 298 298 298 298 298 298
291 287 287 280 278 279 280 278 289 289 291 292 292 294 294 294 294 295 297 295 294 294 293 293 293 293 293 294 294 293 294 294 294 294 294 295 295 296 296 296 296 297 297 296 296 295 295 295 295
Wind_Speed
10 10 2 5 5 5 1 1 4 4 4 2 2 8 9 4 3 4 5 16 18 12 9 8 10 9 10 14 14 13 12 13 12 12 12 13 13 13 13 12 10 11 13 13 12 12 12 11 11
7 6 4 1 4 3 4 1 7 4 4 6 6 5 6 3 3 8 7 14 16 13 8 7 10 10 10 16 14 13 12 12 11 12 11 12 12 12 12 11 13 7 13 14 12 11 10 9 9
10 5 4 4 3 3 4 4 6 4 5 2 3 5 4 2 5 8 13 15 14 11 9 9 11 11 12 14 13 13 13 13 12 12 12 11 10 11 9 12 10 9 10 11 11 10 9 8 8
5 5 5 5 3 5 6 6 8 5 4 4 5 7 4 3 11 9 15 13 13 9 10 11 11 12 11 11 10 10 10 13 12 11 9 9 11 9 7 5 7 9 9 8 9 9 8 7 6
4 2 1 3 2 3 2 9 9 6 5 2 4 2 4 3 14 18 13 11 11 9 8 9 10 9 9 9 8 9 6 12 13 12 10 11 10 10 7 4 4 5 8 7 8 7 6 5 4
5 2 3 1 2 4 2 7 9 5 6 6 6 6 2 5 11 14 12 10 9 10 9 8 9 10 9 8 8 8 6 8 9 10 10 10 9 9 8 7 4 6 6 6 6 6 4 3 1
2 2 4 2 5 3 4 2 7 8 6 2 10 5 4 5 8 8 12 10 11 11 9 7 6 7 8 9 9 8 6 9 8 9 10 9 9 9 9 9 8 7 4 3 3 8 5 2 1
2 3 5 2 7 5 6 2 4 6 2 1 5 6 6 6 9 9 13 12 10 11 9 7 6 5 5 5 7 7 7 7 8 9 8 8 7 7 7 5 7 7 6 6 6 5 6 5 5
3 3 3 4 6 6 5 5 2 2 5 4 4 3 7 11 9 6 6 6 7 7 11 10 8 7 7 6 6 7 7 8 8 7 8 6 4 5 7 7 7 8 8 7 7 7 8 7 6
3 3 3 3 5 6 9 7 7 4 3 4 5 7 9 8 7 8 8 10 8 8 7 9 10 9 8 7 7 6 6 5 5 5 6 4 5 5 6 7 10 9 9 9 8 8 7 6 4
3 4 2 6 5 7 8 6 5 8 3 7 11 11 8 7 6 7 6 6 9 7 6 7 8 8 8 6 5 4 3 4 4 7 6 6 4 4 4 3 4 4 6 4 5 5 4 5 4
2 4 3 5 6 5 3 2 5 6 3 3 13 17 11 10 11 11 9 8 8 7 7 7 6 7 7 5 5 6 5 5 4 6 7 5 3 4 4 4 5 4 4 5 5 3 5 6 6
1 3 2 2 6 3 3 4 2 2 5 7 13 11 11 10 11 10 10 8 8 9 10 10 7 7 6 7 6 6 6 6 6 5 7 5 5 5 4 4 4 5 4 4 5 5 5 6 6
1 3 3 2 3 3 3 4 5 2 5 7 12 10 9 10 12 8 10 11 12 12 13 13 12 10 6 6 5 6 5 6 6 5 6 8 6 5 5 5 5 5 5 5 5 5 5 5 5
2 3 4 1 1 1 3 5 6 6 2 7 8 9 9 10 11 13 13 12 13 11 12 14 14 11 9 7 6 4 3 2 4 6 7 7 8 7 6 5 5 5 5 6 5 5 4 4 4
2 3 1 5 8 3 5 7 4 10 6 7 7 6 6 9 9 9 9 11 10 9 11 11 12 13 12 10 6 5 4 3 3 4 5 7 7 8 6 5 5 5 4 4 4 4 4 4 4
2 3 5 5 3 4 4 5 6 4 5 5 7 7 6 7 7 7 9 9 9 10 10 10 11 13 13 10 7 6 7 5 6 4 4 7 8 7 7 6 5 5 4 4 4 4 4 4 4
6 4 4 6 2 3 3 7 8 7 4 6 6 7 6 6 9 6 7 7 7 8 7 7 8 10 12 9 6 6 5 5 4 5 6 6 5 7 7 6 6 5 4 4 5 6 4 4 4
5 1 5 2 2 2 4 6 10 9 6 8 8 8 9 9 6 6 5 5 6 6 7 8 8 7 4 3 4 5 7 5 4 6 7 8 6 6 8 6 6 6 7 7 5 3 3 2 2
1 1 1 2 4 3 3 8 13 9 8 9 11 12 9 6 8 7 7 6 5 7 7 6 7 7 6 5 3 4 4 4 5 6 7 8 7 6 4 7 8 6 4 4 4 4 2 2 3
5 5 2 1 0 2 5 8 7 6 11 10 12 7 7 9 9 6 6 4 3 3 5 4 5 5 6 7 3 2 1 1 0 3 4 6 7 6 6 5 4 5 3 3 3 3 5 5 3
5 3 4 5 4 3 3 6 7 7 7 6 10 9 9 8 1 2 4 3 4 3 5 5 4 2 2 2 3 5 5 5 3 3 4 5 7 6 6 6 5 5 3 4 4 4 5 4 6
3 5 5 4 3 3 4 1 9 5 8 8 3 3 5 6 4 4 3 3 3 4 4 4 4 4 3 2 3 3 3 4 2 2 4 3 4 5 6 5 5 3 4 5 6 5 6 5 5
7 6 7 4 4 2 10 8 6 5 6 3 3 4 5 5 5 5 3 5 4 6 6 6 6 5 5 3 1 2 4 4 3 1 2 2 2 5 5 4 3 2 2 3 4 5 5 6 6
5 6 3 3 2 7 3 4 8 7 4 7 8 6 3 3 5 4 5 4 4 5 6 5 6 6 6 7 7 6 5 6 7 5 3 4 3 3 5 5 5 4 4 4 5 4 4 4 4
5 5 5 8 5 3 3 7 7 4 3 6 6 6 3 2 5 6 6 4 3 4 5 5 6 5 6 6 6 5 6 4 4 5 4 4 3 3 4 5 5 5 5 5 5 3 3 4 4
5 7 2 4 2 3 5 6 9 6 4 5 5 5 5 5 6 7 6 4 4 3 2 3 3 3 4 4 5 5 5 6 5 6 5 3 4 3 5 5 5 5 5 5 5 3 4 5 4
4 6 2 2 3 5 5 4 6 2 7 6 6 5 4 4 5 5 4 5 4 4 3 3 4 3 2 3 3 3 4 5 5 5 5 5 4 4 4 4 4 4 5 5 5 4 5 5 4
5 4 5 4 4 4 1 6 6 8 7 9 7 4 4 4 2 4 4 4 5 4 4 4 3 4 3 3 2 3 2 3 5 5 4 4 4 4 4 3 4 4 5 5 5 5 5 5 5
4 4 6 4 4 4 2 6 3 8 8 8 7 6 7 6 6 5 6 6 6 6 5 5 4 5 4 3 3 2 2 3 4 4 4 4 4 3 3 4 4 4 4 5 5 5 5 5 5
Wind_Direction
312 303 265 44 47 70 192 60 118 54 54 79 65 89 112 76 58 146 106 121 126 134 135 133 135 124 139 137 133 126 119 115 113 111 109 108 105 103 99 91 90 107 112 96 88 84 81 78 70
304 302 47 81 92 70 288 154 88 98 125 94 60 105 45 95 73 119 94 130 128 132 133 131 134 122 125 142 134 132 126 121 121 119 116 114 114 114 109 103 97 72 89 99 91 87 84 84 74
302 187 89 125 103 145 176 130 138 103 64 109 88 66 89 97 113 140 130 131 131 134 138 140 138 132 129 133 143 143 140 134 133 131 127 124 120 118 108 118 104 102 76 85 92 91 88 78 64
332 351 4 86 139 346 127 168 128 89 20 32 111 72 54 316 152 129 141 141 131 137 141 147 146 145 139 143 146 150 154 143 141 138 132 121 126 119 101 99 114 103 99 95 93 93 86 77 63
13 48 354 113 121 83 93 149 133 157 156 190 102 119 80 27 117 131 138 131 131 123 128 139 145 148 148 143 132 131 147 156 153 148 142 132 122 132 125 104 102 108 114 109 104 98 94 85 70
359 70 41 141 180 115 87 145 135 125 154 115 81 108 126 142 128 146 140 132 131 135 139 144 153 155 156 155 146 144 152 161 153 155 152 151 146 143 146 158 133 126 144 141 132 129 124 101 52
100 69 244 30 148 109 177 91 126 145 138 169 166 85 169 142 162 142 137 148 127 141 141 144 154 161 164 167 168 162 138 155 160 149 155 156 163 170 169 178 176 169 194 170 175 158 160 172 247
92 88 308 230 188 184 195 97 115 104 185 121 120 154 182 197 167 147 154 149 140 138 143 153 158 162 171 176 175 172 157 148 162 167 172 170 176 181 187 192 193 187 201 196 221 231 177 214 237
16 47 278 297 167 175 181 131 62 131 113 58 27 141 159 146 134 138 130 136 147 153 159 160 165 173 176 179 187 180 178 170 165 177 185 188 181 197 201 198 207 210 211 222 233 239 206 217 244
103 136 242 336 328 171 168 136 152 116 107 67 60 44 104 114 133 156 157 162 162 166 180 173 166 180 179 184 173 183 187 187 186 189 192 191 197 203 209 207 212 217 215 224 236 244 228 228 234
228 197 336 6 7 352 163 145 166 123 207 189 174 162 145 136 149 173 186 178 177 170 169 187 176 176 177 190 174 183 186 187 193 200 197 202 204 215 199 194 212 206 221 230 238 243 236 227 231
244 311 101 2 6 14 43 319 165 158 182 260 167 163 155 166 177 189 201 189 169 177 192 198 190 194 189 183 176 185 187 192 198 205 199 191 210 219 206 195 192 196 209 219 222 225 233 230 231
178 298 55 75 24 32 344 40 140 123 141 87 129 152 168 177 186 195 201 205 174 188 197 210 205 205 201 192 179 190 196 193 202 200 202 190 195 206 198 211 203 203 203 210 221 220 231 233 238
39 328 277 73 15 1 25 338 13 285 151 123 139 172 184 185 194 196 197 200 199 198 199 200 210 212 194 194 200 201 191 198 197 199 200 199 196 197 205 215 215 211 199 203 210 214 220 227 222
38 44 334 263 227 330 97 317 232 256 34 162 164 178 194 205 189 197 200 199 193 200 196 193 196 200 201 195 205 208 219 209 205 205 204 200 202 200 201 209 217 216 211 218 218 234 232 243 246
73 47 133 253 177 225 104 263 271 252 211 221 200 220 211 204 207 206 191 190 191 187 191 187 190 192 197 203 200 208 204 217 236 234 212 207 202 200 201 205 221 219 213 208 215 223 236 238 238
341 183 205 299 128 138 142 258 299 12 151 230 239 241 240 257 243 201 193 203 195 194 190 192 185 185 190 193 195 196 210 211 229 218 230 226 209 202 203 214 222 211 218 218 213 228 212 229 247
191 204 215 199 318 85 167 259 286 311 316 256 255 263 271 268 254 255 234 216 199 196 198 203 193 189 186 188 183 191 203 218 213 219 223 233 228 208 203 211 210 203 212 225 225 222 214 221 232
120 150 217 79 334 117 227 259 266 287 277 268 267 269 261 249 254 237 266 266 248 234 201 193 186 209 173 167 173 184 203 208 214 219 225 219 218 224 217 210 205 207 221 227 226 206 228 268 186
227 28 301 94 162 143 249 268 266 245 243 221 227 240 249 284 299 305 307 315 290 260 231 218 212 195 190 194 198 189 168 194 199 208 219 221 218 216 221 216 212 205 212 240 228 183 205 248 190
184 175 235 45 50 323 26 297 275 287 233 243 250 242 234 236 253 272 281 254 5 4 339 307 264 230 219 199 165 160 98 1 171 187 209 218 216 227 221 227 235 189 185 230 213 191 198 244 238
177 222 208 111 90 237 123 284 304 278 267 226 245 231 236 251 248 36 358 356 46 2 348 358 11 352 244 222 196 174 183 194 203 192 201 215 210 214 227 227 226 179 180 230 215 207 215 207 253
161 65 135 107 104 28 287 209 267 281 267 261 262 204 162 158 133 94 73 51 32 18 4 324 324 8 345 107 129 190 196 195 203 244 230 201 191 198 224 232 236 208 195 224 214 206 216 211 232
146 85 52 52 87 326 222 177 267 227 224 130 97 139 147 148 113 91 80 69 47 23 30 34 56 36 21 22 7 209 210 202 176 141 159 144 60 59 36 40 10 83 189 227 226 223 218 222 230
114 113 45 358 328 227 295 185 242 243 189 165 158 145 118 76 121 127 100 78 47 32 18 35 52 36 31 49 58 71 98 102 108 100 97 90 88 50 38 39 35 27 22 2 356 322 281 237 236
177 159 159 200 201 243 317 233 250 267 116 121 124 127 85 58 144 132 136 128 101 60 42 41 39 33 36 54 61 60 73 90 90 92 96 86 92 81 42 42 42 32 23 14 357 344 338 344 320
169 215 177 109 21 58 233 283 308 188 108 104 101 82 90 118 157 150 136 142 141 115 84 93 88 51 29 36 60 56 61 78 95 91 89 88 77 65 51 49 42 29 30 26 9 14 359 2 355
160 154 140 354 173 241 265 258 237 161 169 128 101 84 72 84 143 150 165 172 163 160 164 136 135 125 88 68 69 79 88 90 96 91 88 85 78 63 66 60 53 51 47 34 30 16 22 17 359
163 191 200 149 171 193 247 262 232 209 166 144 154 121 101 80 89 176 202 208 184 173 178 179 155 147 133 125 118 112 98 99 102 106 105 104 97 94 84 70 63 61 52 39 37 20 22 9 356
228 192 190 151 231 222 146 273 285 136 161 150 173 179 172 164 183 204 208 209 206 207 203 194 183 169 178 164 137 140 124 125 123 119 117 106 99 78 80 67 68 60 58 55 48 23 358 353 338